Time,TemperatureF,DewpointF,PressureIn,WindDirection,WindDirectionDegrees,WindSpeedMPH,WindSpeedGustMPH,Humidity,HourlyPrecipIn,Conditions,Clouds,dailyrainin,SoftwareType,DateUTC
2013-01-29 00:00:00,15.0,14.0,30.13,NE,45,1.0,3.0,93,0.00,,,0.00,Rainwise IP-100,2013-01-29 05:00:00,
2013-01-29 00:05:00,15.0,14.0,30.13,NE,45,3.0,4.0,93,0.00,,,0.00,Rainwise IP-100,2013-01-29 05:05:00,
2013-01-29 00:10:00,15.0,14.0,30.13,NE,45,2.0,4.0,93,0.00,,,0.00,Rainwise IP-100,2013-01-29 05:10:00,
2013-01-29 00:15:00,15.0,14.0,30.13,East,90,3.0,5.0,93,0.00,,,0.00,Rainwise IP-100,2013-01-29 05:15:00,
2013-01-29 00:20:00,15.0,14.0,30.13,East,90,2.0,4.0,93,0.00,,,0.00,Rainwise IP-100,2013-01-29 05:20:00,
2013-01-29 00:25:00,15.0,14.0,30.13,East,90,2.0,4.0,93,0.00,,,0.00,Rainwise IP-100,2013-01-29 05:25:00,
2013-01-29 00:30:00,16.0,14.0,30.12,East,90,0.0,3.0,93,0.00,,,0.00,Rainwise IP-100,2013-01-29 05:30:00,
2013-01-29 00:35:00,16.0,14.0,30.12,East,90,0.0,0.0,93,0.00,,,0.00,Rainwise IP-100,2013-01-29 05:35:00,
2013-01-29 00:40:00,16.0,14.0,30.13,East,90,0.0,0.0,93,0.00,,,0.00,Rainwise IP-100,2013-01-29 05:40:00,
2013-01-29 00:45:00,16.0,14.0,30.13,ENE,67,2.0,2.0,93,0.00,,,0.00,Rainwise IP-100,2013-01-29 05:45:00,
2013-01-29 00:46:00,16.0,14.0,30.13,ENE,67,2.0,2.0,93,0.00,,,0.00,Rainwise IP-100,2013-01-29 05:46:00,
2013-01-29 00:51:00,16.0,14.0,30.13,ENE,67,4.0,4.0,93,0.00,,,0.00,Rainwise IP-100,2013-01-29 05:51:00,
2013-01-29 00:56:00,16.0,14.0,30.13,ENE,67,2.0,4.0,93,0.00,,,0.00,Rainwise IP-100,2013-01-29 05:56:00,
2013-01-29 01:01:00,16.0,14.0,30.13,ENE,67,3.0,4.0,93,0.00,,,0.00,Rainwise IP-100,2013-01-29 06:01:00,
2013-01-29 01:06:00,16.0,14.0,30.13,ENE,67,0.0,3.0,93,0.00,,,0.00,Rainwise IP-100,2013-01-29 06:06:00,
2013-01-29 01:11:00,16.0,14.0,30.13,ENE,67,0.0,2.0,93,0.00,,,0.00,Rainwise IP-100,2013-01-29 06:11:00,
2013-01-29 01:16:00,16.0,14.0,30.13,ENE,67,0.0,2.0,93,0.00,,,0.00,Rainwise IP-100,2013-01-29 06:16:00,
2013-01-29 01:21:00,16.0,14.0,30.13,ENE,67,0.0,1.0,93,0.00,,,0.00,Rainwise IP-100,2013-01-29 06:21:00,
2013-01-29 01:26:00,16.0,14.0,30.13,ENE,67,0.0,0.0,93,0.00,,,0.00,Rainwise IP-100,2013-01-29 06:26:00,
2013-01-29 01:31:00,16.0,14.0,30.13,ENE,67,0.0,0.0,93,0.00,,,0.00,Rainwise IP-100,2013-01-29 06:31:00,
2013-01-29 01:36:00,16.0,14.0,30.13,SSW,202,4.0,4.0,93,0.00,,,0.00,Rainwise IP-100,2013-01-29 06:36:00,
2013-01-29 01:41:00,16.0,14.0,30.13,SW,225,0.0,4.0,93,0.00,,,0.00,Rainwise IP-100,2013-01-29 06:41:00,
2013-01-29 01:46:00,16.0,14.0,30.13,WNW,292,2.0,3.0,93,0.00,,,0.00,Rainwise IP-100,2013-01-29 06:46:00,
2013-01-29 01:51:00,16.0,14.0,30.14,WNW,292,0.0,2.0,93,0.00,,,0.00,Rainwise IP-100,2013-01-29 06:51:00,
2013-01-29 01:56:00,16.0,14.0,30.14,WNW,292,0.0,0.0,93,0.00,,,0.00,Rainwise IP-100,2013-01-29 06:56:00,
2013-01-29 02:01:00,16.0,14.0,30.14,WNW,292,0.0,0.0,93,0.00,,,0.00,Rainwise IP-100,2013-01-29 07:01:00,
2013-01-29 09:02:00,20.0,18.0,30.23,NE,45,0.0,0.0,93,0.00,,,0.00,Rainwise IP-100,2013-01-29 14:02:00,
2013-01-29 09:07:00,20.0,18.0,30.23,NE,45,2.0,2.0,93,0.00,,,0.00,Rainwise IP-100,2013-01-29 14:07:00,
2013-01-29 09:12:00,21.0,18.0,30.23,NE,45,2.0,3.0,93,0.00,,,0.00,Rainwise IP-100,2013-01-29 14:12:00,
2013-01-29 09:17:00,21.0,18.0,30.23,NE,45,1.0,3.0,93,0.00,,,0.00,Rainwise IP-100,2013-01-29 14:17:00,
2013-01-29 09:22:00,20.0,18.0,30.23,NE,45,2.0,3.0,93,0.00,,,0.00,Rainwise IP-100,2013-01-29 14:22:00,
2013-01-29 09:27:00,20.0,18.0,30.23,NE,45,0.0,3.0,93,0.00,,,0.00,Rainwise IP-100,2013-01-29 14:27:00,
2013-01-29 09:32:00,21.0,18.0,30.23,NE,45,0.0,3.0,93,0.00,,,0.00,Rainwise IP-100,2013-01-29 14:32:00,
2013-01-29 09:37:00,20.0,18.0,30.23,NE,45,2.0,3.0,93,0.00,,,0.00,Rainwise IP-100,2013-01-29 14:37:00,
2013-01-29 09:42:00,21.0,18.0,30.24,NE,45,1.0,3.0,93,0.00,,,0.00,Rainwise IP-100,2013-01-29 14:42:00,
2013-01-29 09:47:00,21.0,18.0,30.24,NE,45,4.0,4.0,93,0.00,,,0.00,Rainwise IP-100,2013-01-29 14:47:00,
2013-01-29 09:52:00,21.0,18.0,30.25,NE,45,4.0,5.0,93,0.00,,,0.00,Rainwise IP-100,2013-01-29 14:52:00,
2013-01-29 09:57:00,20.0,18.0,30.25,ENE,67,2.0,6.0,93,0.00,,,0.00,Rainwise IP-100,2013-01-29 14:57:00,
2013-01-29 10:02:00,20.0,18.0,30.24,ENE,67,4.0,6.0,93,0.00,,,0.00,Rainwise IP-100,2013-01-29 15:02:00,
2013-01-29 10:07:00,21.0,18.0,30.24,ENE,67,1.0,6.0,93,0.00,,,0.00,Rainwise IP-100,2013-01-29 15:07:00,
2013-01-29 10:12:00,22.0,21.0,30.25,NE,45,3.0,5.0,93,0.00,,,0.00,Rainwise IP-100,2013-01-29 15:12:00,
2013-01-29 10:17:00,22.0,21.0,30.25,NE,45,4.0,5.0,93,0.00,,,0.00,Rainwise IP-100,2013-01-29 15:17:00,
2013-01-29 10:22:00,22.0,21.0,30.25,NNW,337,5.0,7.0,93,0.00,,,0.00,Rainwise IP-100,2013-01-29 15:22:00,
2013-01-29 10:27:00,21.0,18.0,30.25,NW,315,3.0,7.0,93,0.00,,,0.00,Rainwise IP-100,2013-01-29 15:27:00,
2013-01-29 10:32:00,21.0,18.0,30.25,WNW,292,4.0,6.0,93,0.00,,,0.00,Rainwise IP-100,2013-01-29 15:32:00,
2013-01-29 10:37:00,21.0,18.0,30.25,NW,315,3.0,5.0,93,0.00,,,0.00,Rainwise IP-100,2013-01-29 15:37:00,
2013-01-29 10:42:00,21.0,18.0,30.25,NW,315,1.0,4.0,93,0.00,,,0.00,Rainwise IP-100,2013-01-29 15:42:00,
2013-01-29 10:47:00,21.0,18.0,30.25,NW,315,0.0,2.0,93,0.00,,,0.00,Rainwise IP-100,2013-01-29 15:47:00,
2013-01-29 10:52:00,22.0,21.0,30.25,NE,45,3.0,3.0,93,0.00,,,0.00,Rainwise IP-100,2013-01-29 15:52:00,
2013-01-29 10:57:00,22.0,21.0,30.25,NE,45,3.0,3.0,93,0.00,,,0.00,Rainwise IP-100,2013-01-29 15:57:00,
2013-01-29 11:02:00,22.0,21.0,30.26,NE,45,3.0,4.0,93,0.00,,,0.00,Rainwise IP-100,2013-01-29 16:02:00,
2013-01-29 11:07:00,23.0,21.0,30.26,NE,45,2.0,4.0,93,0.00,,,0.00,Rainwise IP-100,2013-01-29 16:07:00,
2013-01-29 11:12:00,23.0,21.0,30.24,NE,45,0.0,3.0,93,0.00,,,0.00,Rainwise IP-100,2013-01-29 16:12:00,
2013-01-29 11:17:00,24.0,23.0,30.24,NE,45,1.0,3.0,94,0.00,,,0.00,Rainwise IP-100,2013-01-29 16:17:00,
2013-01-29 11:22:00,24.0,23.0,30.24,NE,45,3.0,3.0,94,0.00,,,0.00,Rainwise IP-100,2013-01-29 16:22:00,
2013-01-29 11:27:00,24.0,23.0,30.24,NE,45,2.0,3.0,94,0.00,,,0.00,Rainwise IP-100,2013-01-29 16:27:00,
2013-01-29 11:32:00,24.0,23.0,30.24,NE,45,2.0,5.0,94,0.00,,,0.00,Rainwise IP-100,2013-01-29 16:32:00,
2013-01-29 11:37:00,23.0,21.0,30.24,ENE,67,4.0,5.0,93,0.00,,,0.00,Rainwise IP-100,2013-01-29 16:37:00,
2013-01-29 11:42:00,23.0,21.0,30.23,ENE,67,3.0,5.0,93,0.00,,,0.00,Rainwise IP-100,2013-01-29 16:42:00,
2013-01-29 11:47:00,23.0,21.0,30.23,ENE,67,2.0,5.0,93,0.00,,,0.00,Rainwise IP-100,2013-01-29 16:47:00,
2013-01-29 11:52:00,25.0,24.0,30.23,ENE,67,0.0,4.0,94,0.00,,,0.00,Rainwise IP-100,2013-01-29 16:52:00,
2013-01-29 11:57:00,25.0,24.0,30.23,ENE,67,0.0,0.0,93,0.00,,,0.00,Rainwise IP-100,2013-01-29 16:57:00,
2013-01-29 12:02:00,25.0,24.0,30.22,ENE,67,3.0,3.0,91,0.00,,,0.00,Rainwise IP-100,2013-01-29 17:02:00,
2013-01-29 12:07:00,24.0,23.0,30.22,ENE,67,3.0,5.0,94,0.00,,,0.00,Rainwise IP-100,2013-01-29 17:07:00,
2013-01-29 12:12:00,25.0,24.0,30.23,ENE,67,2.0,4.0,94,0.00,,,0.00,Rainwise IP-100,2013-01-29 17:12:00,
2013-01-29 12:17:00,24.0,23.0,30.23,ENE,67,3.0,3.0,94,0.00,,,0.00,Rainwise IP-100,2013-01-29 17:17:00,
2013-01-29 12:22:00,24.0,23.0,30.23,ENE,67,2.0,3.0,94,0.00,,,0.00,Rainwise IP-100,2013-01-29 17:22:00,
2013-01-29 12:27:00,24.0,23.0,30.23,ENE,67,3.0,4.0,94,0.00,,,0.00,Rainwise IP-100,2013-01-29 17:27:00,
2013-01-29 12:32:00,24.0,23.0,30.22,ENE,67,1.0,4.0,94,0.00,,,0.00,Rainwise IP-100,2013-01-29 17:32:00,
2013-01-29 12:37:00,25.0,24.0,30.22,ENE,67,3.0,4.0,94,0.00,,,0.00,Rainwise IP-100,2013-01-29 17:37:00,
2013-01-29 12:42:00,25.0,24.0,30.20,ENE,67,2.0,3.0,94,0.00,,,0.00,Rainwise IP-100,2013-01-29 17:42:00,
2013-01-29 12:47:00,26.0,24.0,30.20,ENE,67,0.0,3.0,94,0.00,,,0.00,Rainwise IP-100,2013-01-29 17:47:00,
2013-01-29 12:52:00,26.0,24.0,30.19,ENE,67,1.0,2.0,93,0.00,,,0.00,Rainwise IP-100,2013-01-29 17:52:00,
2013-01-29 12:57:00,27.0,26.0,30.19,ENE,67,0.0,1.0,90,0.00,,,0.00,Rainwise IP-100,2013-01-29 17:57:00,
2013-01-29 13:02:00,27.0,26.0,30.19,ENE,67,0.0,0.0,90,0.00,,,0.00,Rainwise IP-100,2013-01-29 18:02:00,
2013-01-29 13:07:00,28.0,26.0,30.19,ENE,67,0.0,0.0,92,0.00,,,0.00,Rainwise IP-100,2013-01-29 18:07:00,
2013-01-29 13:12:00,27.0,24.0,30.20,ENE,67,3.0,0.0,87,0.00,,,0.00,Rainwise IP-100,2013-01-29 18:12:00,
2013-01-29 13:17:00,25.0,24.0,30.20,East,90,4.0,6.0,93,0.00,,,0.00,Rainwise IP-100,2013-01-29 18:17:00,
2013-01-29 13:22:00,25.0,24.0,30.19,East,90,1.0,4.0,94,0.00,,,0.00,Rainwise IP-100,2013-01-29 18:22:00,
2013-01-29 13:27:00,26.0,24.0,30.19,ESE,112,0.0,3.0,92,0.00,,,0.00,Rainwise IP-100,2013-01-29 18:27:00,
2013-01-29 13:32:00,26.0,24.0,30.19,ESE,112,0.0,0.0,92,0.00,,,0.00,Rainwise IP-100,2013-01-29 18:32:00,
2013-01-29 13:37:00,26.0,24.0,30.19,ESE,112,0.0,0.0,92,0.00,,,0.00,Rainwise IP-100,2013-01-29 18:37:00,
2013-01-29 13:42:00,27.0,26.0,30.18,ESE,112,0.0,0.0,91,0.00,,,0.00,Rainwise IP-100,2013-01-29 18:42:00,
2013-01-29 13:47:00,27.0,26.0,30.18,ESE,112,1.0,2.0,90,0.00,,,0.00,Rainwise IP-100,2013-01-29 18:47:00,
2013-01-29 13:52:00,27.0,26.0,30.17,ESE,112,3.0,3.0,92,0.00,,,0.00,Rainwise IP-100,2013-01-29 18:52:00,
2013-01-29 13:57:00,26.0,24.0,30.17,ENE,67,3.0,5.0,94,0.00,,,0.00,Rainwise IP-100,2013-01-29 18:57:00,
2013-01-29 14:02:00,27.0,26.0,30.16,ENE,67,2.0,4.0,94,0.00,,,0.00,Rainwise IP-100,2013-01-29 19:02:00,
2013-01-29 14:07:00,27.0,26.0,30.16,ENE,67,1.0,3.0,94,0.00,,,0.00,Rainwise IP-100,2013-01-29 19:07:00,
2013-01-29 14:12:00,27.0,26.0,30.15,ENE,67,2.0,5.0,92,0.00,,,0.00,Rainwise IP-100,2013-01-29 19:12:00,
2013-01-29 14:17:00,27.0,26.0,30.15,ENE,67,2.0,4.0,93,0.00,,,0.00,Rainwise IP-100,2013-01-29 19:17:00,
2013-01-29 14:22:00,27.0,26.0,30.15,ENE,67,1.0,4.0,94,0.00,,,0.00,Rainwise IP-100,2013-01-29 19:22:00,
2013-01-29 14:27:00,27.0,26.0,30.15,ENE,67,1.0,2.0,94,0.00,,,0.00,Rainwise IP-100,2013-01-29 19:27:00,
2013-01-29 14:32:00,27.0,26.0,30.15,ENE,67,0.0,1.0,92,0.00,,,0.00,Rainwise IP-100,2013-01-29 19:32:00,
2013-01-29 14:37:00,27.0,26.0,30.15,ENE,67,0.0,5.0,93,0.00,,,0.00,Rainwise IP-100,2013-01-29 19:37:00,
2013-01-29 14:42:00,27.0,26.0,30.15,ENE,67,0.0,1.0,92,0.00,,,0.00,Rainwise IP-100,2013-01-29 19:42:00,
2013-01-29 14:47:00,27.0,26.0,30.15,ESE,112,4.0,4.0,92,0.00,,,0.00,Rainwise IP-100,2013-01-29 19:47:00,
2013-01-29 14:52:00,27.0,26.0,30.15,SE,135,3.0,4.0,92,0.00,,,0.00,Rainwise IP-100,2013-01-29 19:52:00,
2013-01-29 14:56:00,27.0,26.0,30.15,SE,135,0.0,5.0,93,0.00,,,0.00,Rainwise IP-100,2013-01-29 19:56:00,
2013-01-29 15:01:00,27.0,26.0,30.15,SE,135,0.0,3.0,91,0.00,,,0.00,Rainwise IP-100,2013-01-29 20:01:00,
2013-01-29 15:06:00,27.0,26.0,30.15,SE,135,0.0,1.0,90,0.00,,,0.00,Rainwise IP-100,2013-01-29 20:06:00,
2013-01-29 15:11:00,27.0,26.0,30.15,SE,135,0.0,0.0,91,0.00,,,0.00,Rainwise IP-100,2013-01-29 20:11:00,
2013-01-29 15:16:00,27.0,26.0,30.15,SE,135,0.0,0.0,93,0.00,,,0.00,Rainwise IP-100,2013-01-29 20:16:00,
2013-01-29 15:21:00,27.0,26.0,30.15,ESE,112,0.0,1.0,92,0.00,,,0.00,Rainwise IP-100,2013-01-29 20:21:00,
2013-01-29 15:26:00,27.0,26.0,30.15,ENE,67,3.0,5.0,94,0.00,,,0.00,Rainwise IP-100,2013-01-29 20:26:00,
2013-01-29 15:31:00,27.0,26.0,30.15,NE,45,1.0,5.0,94,0.00,,,0.00,Rainwise IP-100,2013-01-29 20:31:00,
2013-01-29 15:36:00,26.0,24.0,30.15,NE,45,5.0,7.0,94,0.00,,,0.00,Rainwise IP-100,2013-01-29 20:36:00,
2013-01-29 15:41:00,26.0,24.0,30.15,NE,45,2.0,6.0,94,0.00,,,0.00,Rainwise IP-100,2013-01-29 20:41:00,
2013-01-29 15:46:00,26.0,24.0,30.15,NE,45,0.0,3.0,94,0.00,,,0.00,Rainwise IP-100,2013-01-29 20:46:00,
2013-01-29 15:51:00,26.0,24.0,30.16,NE,45,1.0,3.0,94,0.06,,,0.01,Rainwise IP-100,2013-01-29 20:51:00,
2013-01-29 15:56:00,26.0,24.0,30.16,NE,45,2.0,3.0,94,0.06,,,0.01,Rainwise IP-100,2013-01-29 20:56:00,
2013-01-29 16:01:00,26.0,24.0,30.16,NE,45,1.0,5.0,94,0.00,,,0.01,Rainwise IP-100,2013-01-29 21:01:00,
2013-01-29 16:06:00,26.0,24.0,30.16,NE,45,0.0,2.0,94,0.00,,,0.01,Rainwise IP-100,2013-01-29 21:06:00,
2013-01-29 16:11:00,26.0,24.0,30.16,NE,45,3.0,4.0,94,0.00,,,0.01,Rainwise IP-100,2013-01-29 21:11:00,
2013-01-29 16:16:00,26.0,24.0,30.16,NE,45,4.0,6.0,94,0.00,,,0.01,Rainwise IP-100,2013-01-29 21:16:00,
2013-01-29 16:21:00,26.0,24.0,30.15,NE,45,4.0,5.0,94,0.00,,,0.01,Rainwise IP-100,2013-01-29 21:21:00,
2013-01-29 16:26:00,26.0,24.0,30.15,ENE,67,4.0,6.0,94,0.06,,,0.02,Rainwise IP-100,2013-01-29 21:26:00,
2013-01-29 16:31:00,26.0,24.0,30.15,ENE,67,6.0,6.0,94,0.06,,,0.02,Rainwise IP-100,2013-01-29 21:31:00,
2013-01-29 16:36:00,26.0,24.0,30.15,ENE,67,5.0,8.0,94,0.00,,,0.02,Rainwise IP-100,2013-01-29 21:36:00,
2013-01-29 16:41:00,26.0,24.0,30.16,ENE,67,1.0,7.0,94,0.00,,,0.02,Rainwise IP-100,2013-01-29 21:41:00,
2013-01-29 16:46:00,26.0,24.0,30.16,ENE,67,1.0,4.0,94,0.00,,,0.02,Rainwise IP-100,2013-01-29 21:46:00,
2013-01-29 16:51:00,26.0,24.0,30.15,NE,45,5.0,6.0,94,0.00,,,0.02,Rainwise IP-100,2013-01-29 21:51:00,
2013-01-29 16:56:00,26.0,24.0,30.15,NE,45,3.0,5.0,94,0.00,,,0.02,Rainwise IP-100,2013-01-29 21:56:00,
2013-01-29 17:01:00,26.0,24.0,30.15,East,90,1.0,4.0,94,0.00,,,0.02,Rainwise IP-100,2013-01-29 22:01:00,
2013-01-29 17:06:00,26.0,24.0,30.15,East,90,2.0,4.0,94,0.00,,,0.02,Rainwise IP-100,2013-01-29 22:06:00,
2013-01-29 17:11:00,26.0,24.0,30.15,East,90,2.0,3.0,94,0.00,,,0.02,Rainwise IP-100,2013-01-29 22:11:00,
2013-01-29 17:16:00,26.0,24.0,30.15,East,90,0.0,3.0,94,0.00,,,0.02,Rainwise IP-100,2013-01-29 22:16:00,
2013-01-29 17:21:00,26.0,24.0,30.16,East,90,2.0,3.0,94,0.00,,,0.02,Rainwise IP-100,2013-01-29 22:21:00,
2013-01-29 17:26:00,26.0,24.0,30.16,East,90,0.0,2.0,94,0.00,,,0.02,Rainwise IP-100,2013-01-29 22:26:00,
2013-01-29 17:31:00,26.0,24.0,30.16,East,90,3.0,4.0,94,0.00,,,0.02,Rainwise IP-100,2013-01-29 22:31:00,
2013-01-29 17:36:00,26.0,24.0,30.16,East,90,0.0,3.0,94,0.00,,,0.02,Rainwise IP-100,2013-01-29 22:36:00,
2013-01-29 17:41:00,26.0,24.0,30.16,East,90,0.0,3.0,94,0.00,,,0.02,Rainwise IP-100,2013-01-29 22:41:00,
2013-01-29 17:46:00,26.0,24.0,30.16,East,90,0.0,1.0,94,0.00,,,0.02,Rainwise IP-100,2013-01-29 22:46:00,
2013-01-29 17:51:00,26.0,24.0,30.16,NNE,22,0.0,4.0,94,0.00,,,0.02,Rainwise IP-100,2013-01-29 22:51:00,
2013-01-29 17:56:00,26.0,24.0,30.16,NNE,22,0.0,3.0,94,0.00,,,0.02,Rainwise IP-100,2013-01-29 22:56:00,
2013-01-29 18:01:00,26.0,24.0,30.16,NNE,22,0.0,2.0,94,0.00,,,0.02,Rainwise IP-100,2013-01-29 23:01:00,
2013-01-29 18:06:00,27.0,26.0,30.16,NNE,22,0.0,2.0,94,0.00,,,0.02,Rainwise IP-100,2013-01-29 23:06:00,
2013-01-29 18:11:00,27.0,26.0,30.14,NNE,22,3.0,3.0,94,0.00,,,0.02,Rainwise IP-100,2013-01-29 23:11:00,
2013-01-29 18:16:00,27.0,26.0,30.14,NNE,22,0.0,4.0,94,0.00,,,0.02,Rainwise IP-100,2013-01-29 23:16:00,
2013-01-29 18:21:00,27.0,26.0,30.14,NNE,22,2.0,3.0,94,0.00,,,0.02,Rainwise IP-100,2013-01-29 23:21:00,
2013-01-29 18:26:00,27.0,26.0,30.14,NNE,22,0.0,3.0,94,0.00,,,0.02,Rainwise IP-100,2013-01-29 23:26:00,
2013-01-29 18:31:00,27.0,26.0,30.15,NNE,22,0.0,1.0,94,0.00,,,0.02,Rainwise IP-100,2013-01-29 23:31:00,
2013-01-29 18:36:00,27.0,26.0,30.15,NNE,22,0.0,2.0,94,0.00,,,0.02,Rainwise IP-100,2013-01-29 23:36:00,
2013-01-29 18:41:00,27.0,26.0,30.14,NNE,22,1.0,3.0,94,0.00,,,0.02,Rainwise IP-100,2013-01-29 23:41:00,
2013-01-29 18:46:00,27.0,26.0,30.14,NNE,22,1.0,4.0,94,0.00,,,0.02,Rainwise IP-100,2013-01-29 23:46:00,
2013-01-29 18:51:00,27.0,26.0,30.14,NNE,22,1.0,1.0,94,0.00,,,0.02,Rainwise IP-100,2013-01-29 23:51:00,
2013-01-29 18:56:00,27.0,26.0,30.14,NNE,22,0.0,3.0,94,0.00,,,0.02,Rainwise IP-100,2013-01-29 23:56:00,
2013-01-29 19:01:00,27.0,26.0,30.13,NNE,22,1.0,3.0,94,0.00,,,0.02,Rainwise IP-100,2013-01-30 00:01:00,
2013-01-29 19:06:00,26.0,24.0,30.13,NNE,22,2.0,4.0,94,0.00,,,0.02,Rainwise IP-100,2013-01-30 00:06:00,
2013-01-29 19:11:00,27.0,26.0,30.13,NNE,22,0.0,3.0,94,0.00,,,0.02,Rainwise IP-100,2013-01-30 00:11:00,
2013-01-29 19:16:00,26.0,24.0,30.13,NNE,22,0.0,1.0,94,0.00,,,0.02,Rainwise IP-100,2013-01-30 00:16:00,
2013-01-29 19:21:00,27.0,26.0,30.14,WSW,247,7.0,8.0,94,0.00,,,0.02,Rainwise IP-100,2013-01-30 00:21:00,
2013-01-29 19:26:00,28.0,26.0,30.14,SW,225,7.0,10.0,94,0.00,,,0.02,Rainwise IP-100,2013-01-30 00:26:00,
2013-01-29 19:31:00,29.0,28.0,30.13,SW,225,5.0,10.0,94,0.00,,,0.02,Rainwise IP-100,2013-01-30 00:31:00,
2013-01-29 19:36:00,29.0,28.0,30.13,South,180,12.0,12.0,94,0.00,,,0.02,Rainwise IP-100,2013-01-30 00:36:00,
2013-01-29 19:41:00,29.0,28.0,30.13,SW,225,7.0,15.0,94,0.00,,,0.02,Rainwise IP-100,2013-01-30 00:41:00,
2013-01-29 19:46:00,29.0,28.0,30.13,South,180,4.0,10.0,94,0.00,,,0.02,Rainwise IP-100,2013-01-30 00:46:00,
2013-01-29 19:51:00,29.0,28.0,30.12,SW,225,10.0,14.0,94,0.00,,,0.02,Rainwise IP-100,2013-01-30 00:51:00,
2013-01-29 19:56:00,29.0,28.0,30.12,SSW,202,9.0,11.0,94,0.00,,,0.02,Rainwise IP-100,2013-01-30 00:56:00,
2013-01-29 20:01:00,29.0,28.0,30.10,SW,225,7.0,10.0,94,0.00,,,0.02,Rainwise IP-100,2013-01-30 01:01:00,
2013-01-29 20:06:00,29.0,28.0,30.10,WSW,247,6.0,10.0,94,0.00,,,0.02,Rainwise IP-100,2013-01-30 01:06:00,
2013-01-29 20:11:00,29.0,28.0,30.09,SW,225,7.0,10.0,94,0.00,,,0.02,Rainwise IP-100,2013-01-30 01:11:00,
2013-01-29 20:16:00,30.0,29.0,30.09,WSW,247,6.0,12.0,95,0.00,,,0.02,Rainwise IP-100,2013-01-30 01:16:00,
2013-01-29 20:21:00,30.0,29.0,30.10,SW,225,7.0,10.0,95,0.00,,,0.02,Rainwise IP-100,2013-01-30 01:21:00,
2013-01-29 20:26:00,30.0,29.0,30.10,SW,225,6.0,9.0,95,0.00,,,0.02,Rainwise IP-100,2013-01-30 01:26:00,
2013-01-29 20:31:00,30.0,29.0,30.10,SSW,202,7.0,9.0,95,0.00,,,0.02,Rainwise IP-100,2013-01-30 01:31:00,
2013-01-29 20:36:00,30.0,29.0,30.10,SW,225,7.0,10.0,95,0.00,,,0.02,Rainwise IP-100,2013-01-30 01:36:00,
2013-01-29 20:41:00,30.0,29.0,30.11,SSW,202,6.0,8.0,95,0.00,,,0.02,Rainwise IP-100,2013-01-30 01:41:00,
2013-01-29 20:46:00,30.0,29.0,30.11,South,180,6.0,8.0,95,0.00,,,0.02,Rainwise IP-100,2013-01-30 01:46:00,
2013-01-29 20:51:00,30.0,29.0,30.11,SSW,202,3.0,10.0,95,0.00,,,0.02,Rainwise IP-100,2013-01-30 01:51:00,
2013-01-29 20:56:00,30.0,29.0,30.11,SSW,202,3.0,7.0,95,0.00,,,0.02,Rainwise IP-100,2013-01-30 01:56:00,
2013-01-29 21:01:00,30.0,29.0,30.11,SW,225,4.0,7.0,95,0.00,,,0.02,Rainwise IP-100,2013-01-30 02:01:00,
2013-01-29 21:06:00,30.0,29.0,30.11,SW,225,3.0,10.0,95,0.00,,,0.02,Rainwise IP-100,2013-01-30 02:06:00,
2013-01-29 21:11:00,30.0,29.0,30.11,SW,225,9.0,9.0,95,0.00,,,0.02,Rainwise IP-100,2013-01-30 02:11:00,
2013-01-29 21:16:00,30.0,29.0,30.11,South,180,10.0,13.0,95,0.00,,,0.02,Rainwise IP-100,2013-01-30 02:16:00,
2013-01-29 21:21:00,30.0,29.0,30.10,SSW,202,10.0,13.0,95,0.00,,,0.02,Rainwise IP-100,2013-01-30 02:21:00,
2013-01-29 21:26:00,30.0,29.0,30.10,SSW,202,7.0,14.0,95,0.00,,,0.02,Rainwise IP-100,2013-01-30 02:26:00,
2013-01-29 21:31:00,30.0,29.0,30.10,WSW,247,7.0,13.0,95,0.00,,,0.02,Rainwise IP-100,2013-01-30 02:31:00,
2013-01-29 21:36:00,30.0,29.0,30.10,South,180,12.0,12.0,95,0.00,,,0.02,Rainwise IP-100,2013-01-30 02:36:00,
2013-01-29 21:41:00,30.0,29.0,30.10,WSW,247,8.0,18.0,95,0.00,,,0.02,Rainwise IP-100,2013-01-30 02:41:00,
2013-01-29 21:46:00,30.0,29.0,30.10,SSW,202,8.0,13.0,95,0.00,,,0.02,Rainwise IP-100,2013-01-30 02:46:00,
2013-01-29 21:51:00,30.0,29.0,30.09,SSW,202,8.0,10.0,95,0.00,,,0.02,Rainwise IP-100,2013-01-30 02:51:00,
2013-01-29 21:56:00,30.0,29.0,30.09,SW,225,7.0,12.0,95,0.00,,,0.02,Rainwise IP-100,2013-01-30 02:56:00,
2013-01-29 22:01:00,30.0,29.0,30.10,SW,225,9.0,12.0,95,0.00,,,0.02,Rainwise IP-100,2013-01-30 03:01:00,
2013-01-29 22:06:00,30.0,29.0,30.10,SW,225,6.0,10.0,95,0.00,,,0.02,Rainwise IP-100,2013-01-30 03:06:00,
2013-01-29 22:11:00,30.0,29.0,30.10,SW,225,9.0,10.0,95,0.00,,,0.02,Rainwise IP-100,2013-01-30 03:11:00,
2013-01-29 22:16:00,30.0,29.0,30.10,SSW,202,10.0,13.0,95,0.00,,,0.02,Rainwise IP-100,2013-01-30 03:16:00,
2013-01-29 22:21:00,30.0,29.0,30.09,SW,225,12.0,13.0,95,0.00,,,0.02,Rainwise IP-100,2013-01-30 03:21:00,
2013-01-29 22:26:00,30.0,29.0,30.09,WSW,247,7.0,12.0,95,0.00,,,0.02,Rainwise IP-100,2013-01-30 03:26:00,
2013-01-29 22:31:00,30.0,29.0,30.09,SW,225,8.0,11.0,95,0.00,,,0.02,Rainwise IP-100,2013-01-30 03:31:00,
2013-01-29 22:36:00,30.0,29.0,30.09,SW,225,6.0,9.0,95,0.00,,,0.02,Rainwise IP-100,2013-01-30 03:36:00,
2013-01-29 22:41:00,30.0,29.0,30.08,WSW,247,7.0,7.0,95,0.00,,,0.02,Rainwise IP-100,2013-01-30 03:41:00,
2013-01-29 22:46:00,30.0,29.0,30.08,WSW,247,6.0,9.0,95,0.00,,,0.02,Rainwise IP-100,2013-01-30 03:46:00,
2013-01-29 22:51:00,30.0,29.0,30.08,West,270,5.0,8.0,95,0.00,,,0.02,Rainwise IP-100,2013-01-30 03:51:00,
2013-01-29 22:56:00,30.0,29.0,30.08,South,180,7.0,7.0,95,0.00,,,0.02,Rainwise IP-100,2013-01-30 03:56:00,
2013-01-29 23:01:00,31.0,29.0,30.07,SW,225,9.0,9.0,95,0.00,,,0.02,Rainwise IP-100,2013-01-30 04:01:00,
2013-01-29 23:06:00,31.0,29.0,30.07,South,180,0.0,10.0,95,0.00,,,0.02,Rainwise IP-100,2013-01-30 04:06:00,
2013-01-29 23:11:00,29.0,28.0,30.09,East,90,0.0,7.0,94,0.00,,,0.02,Rainwise IP-100,2013-01-30 04:11:00,
2013-01-29 23:16:00,29.0,28.0,30.09,SW,225,4.0,7.0,94,0.00,,,0.02,Rainwise IP-100,2013-01-30 04:16:00,
2013-01-29 23:21:00,30.0,29.0,30.08,ESE,112,3.0,6.0,95,0.00,,,0.02,Rainwise IP-100,2013-01-30 04:21:00,
2013-01-29 23:26:00,29.0,28.0,30.08,ESE,112,3.0,4.0,94,0.00,,,0.02,Rainwise IP-100,2013-01-30 04:26:00,
2013-01-29 23:31:00,29.0,28.0,30.09,ESE,112,0.0,4.0,94,0.00,,,0.02,Rainwise IP-100,2013-01-30 04:31:00,
2013-01-29 23:36:00,29.0,28.0,30.09,ESE,112,4.0,4.0,94,0.00,,,0.02,Rainwise IP-100,2013-01-30 04:36:00,
2013-01-29 23:41:00,30.0,29.0,30.08,South,180,8.0,8.0,95,0.00,,,0.02,Rainwise IP-100,2013-01-30 04:41:00,
2013-01-29 23:46:00,31.0,29.0,30.08,WSW,247,7.0,10.0,95,0.00,,,0.02,Rainwise IP-100,2013-01-30 04:46:00,
2013-01-29 23:51:00,31.0,29.0,30.08,WSW,247,7.0,10.0,95,0.00,,,0.02,Rainwise IP-100,2013-01-30 04:51:00,
2013-01-29 23:56:00,31.0,29.0,30.08,SW,225,5.0,7.0,95,0.00,,,0.02,Rainwise IP-100,2013-01-30 04:56:00,